Voltar ao catálogo

STARLINK-11474

AtivoComunicaçõesVLEO
NORAD 62065·PAYLOAD·🇺🇸 United States

Lançado Nov 24, 2024 de Vandenberg Space Force Base

Loading…

Próximas Passagens (próximas 24 horas)

TLE

AtualizadoSource: CelesTrak SupGP

Época: Sep 14, 2026, 20:47 UTC

1 62065C 24217J   26257.86645833  .00051960  00000+0  42798-3 0  2570
2 62065  53.1573 218.3590 0001364  88.7896 150.0414 15.69685045    18

Acompanhe STARLINK-11474 em tempo real com AllMySat

Download on the App Store